Location: Denia
(38.8500°N, 0.1170°E)
Time: 22:07:43
(UTC+01:00)

Envisat - Pass Details

Date: 22 January 2020
Orbit: 764 x 766 km, 98.1° (Epoch: 23 February)

Event Time Altitude Azimuth Distance (km) Brightness Sun altitude
Rises 20:18:14 0° 216° (SW) 3,220 6.8 -25.0°
Reaches altitude 10° 20:22:00 10° 245° (WSW) 2,300 6.4 -25.7°
Maximum altitude 20:24:06 12° 270° (W) 2,134 6.3 -26.2°
Drops below altitude 10° 20:26:12 10° 295° (WNW) 2,307 6.2 -26.6°
Sets 20:30:01 0° 324° (NW) 3,239 6.7 -27.3°
